PRIVATE WETTERSTATION BILLIGHEIM-ALLFELD                       ZURCK
Wetterdaten: Donnerstag, 20.04.2017
Datum Zeit Temp. A. Temp. A. min Temp. A. max Feuchte A. Luftdruck Regen Wind Richtung Richtung Sonnenschein ET Solar Taupunkt Windchill Windben Empfang
20.04.2017 00:00 -1,8 C -1,8 C -1,8 C 88 % 1034,5 hPa 0,0 l/m 0,0 km/h (0 Bft) N 0 0 min 0,000 mm 0 W/m -3,5 C -1,8 C 0,0 km/h (0 Bft) 100 %
20.04.2017 00:10 -1,8 C -1,8 C -1,8 C 88 % 1034,5 hPa 0,0 l/m 0,0 km/h (0 Bft) N 0 0 min 0,000 mm 0 W/m -3,5 C -1,8 C 0,0 km/h (0 Bft) 100 %
20.04.2017 00:20 -1,7 C -1,8 C -1,7 C 89 % 1034,4 hPa 0,0 l/m 0,0 km/h (0 Bft) N 0 0 min 0,000 mm 0 W/m -3,3 C -1,7 C 0,0 km/h (0 Bft) 100 %
20.04.2017 00:30 -1,7 C -1,7 C -1,7 C 88 % 1034,5 hPa 0,0 l/m 0,0 km/h (0 Bft) N 0 0 min 0,000 mm 0 W/m -3,4 C -1,7 C 0,0 km/h (0 Bft) 100 %
20.04.2017 00:40 -1,6 C -1,7 C -1,6 C 88 % 1034,4 hPa 0,0 l/m 0,0 km/h (0 Bft) N 0 0 min 0,000 mm 0 W/m -3,3 C -1,6 C 0,0 km/h (0 Bft) 100 %
20.04.2017 00:50 -1,6 C -1,6 C -1,6 C 89 % 1034,4 hPa 0,0 l/m 0,0 km/h (0 Bft) N 0 0 min 0,000 mm 0 W/m -3,2 C -1,6 C 0,0 km/h (0 Bft) 88 %
20.04.2017 01:00 -1,6 C -1,6 C -1,6 C 88 % 1034,4 hPa 0,0 l/m 0,0 km/h (0 Bft) N 0 0 min 0,000 mm 0 W/m -3,3 C -1,6 C 0,0 km/h (0 Bft) 100 %
20.04.2017 01:10 -1,7 C -1,7 C -1,6 C 88 % 1034,4 hPa 0,0 l/m 0,0 km/h (0 Bft) N 0 0 min 0,000 mm 0 W/m -3,4 C -1,7 C 0,0 km/h (0 Bft) 100 %
20.04.2017 01:20 -1,8 C -1,8 C -1,7 C 88 % 1034,3 hPa 0,0 l/m 0,0 km/h (0 Bft) N 0 0 min 0,000 mm 0 W/m -3,5 C -1,8 C 0,0 km/h (0 Bft) 100 %
20.04.2017 01:30 -2,0 C -2,0 C -1,8 C 88 % 1034,4 hPa 0,0 l/m 0,0 km/h (0 Bft) N 0 0 min 0,000 mm 0 W/m -3,7 C -2,0 C 0,0 km/h (0 Bft) 100 %
20.04.2017 01:40 -2,1 C -2,1 C -2,0 C 89 % 1034,3 hPa 0,0 l/m 0,0 km/h (0 Bft) N 0 0 min 0,000 mm 0 W/m -3,7 C -2,1 C 0,0 km/h (0 Bft) 100 %
20.04.2017 01:50 -2,1 C -2,1 C -2,1 C 89 % 1034,2 hPa 0,0 l/m 0,0 km/h (0 Bft) N 0 0 min 0,000 mm 0 W/m -3,7 C -2,1 C 0,0 km/h (0 Bft) 94 %
20.04.2017 02:00 -2,1 C -2,1 C -2,1 C 89 % 1034,2 hPa 0,0 l/m 0,0 km/h (0 Bft) N 0 0 min 0,000 mm 0 W/m -3,7 C -2,1 C 0,0 km/h (0 Bft) 97 %
20.04.2017 02:10 -2,2 C -2,2 C -2,1 C 89 % 1034,3 hPa 0,0 l/m 0,0 km/h (0 Bft) N 0 0 min 0,000 mm 0 W/m -3,8 C -2,2 C 0,0 km/h (0 Bft) 100 %
20.04.2017 02:20 -2,2 C -2,2 C -2,2 C 89 % 1034,3 hPa 0,0 l/m 0,0 km/h (0 Bft) N 0 0 min 0,000 mm 0 W/m -3,8 C -2,2 C 0,0 km/h (0 Bft) 100 %
20.04.2017 02:30 -2,4 C -2,4 C -2,2 C 89 % 1034,2 hPa 0,0 l/m 0,0 km/h (0 Bft) N 0 0 min 0,000 mm 0 W/m -4,0 C -2,4 C 0,0 km/h (0 Bft) 100 %
20.04.2017 02:40 -2,5 C -2,5 C -2,4 C 89 % 1034,2 hPa 0,0 l/m 0,0 km/h (0 Bft) N 0 0 min 0,000 mm 0 W/m -4,1 C -2,5 C 0,0 km/h (0 Bft) 100 %
20.04.2017 02:50 -2,6 C -2,6 C -2,4 C 89 % 1034,2 hPa 0,0 l/m 0,0 km/h (0 Bft) N 0 0 min 0,000 mm 0 W/m -4,2 C -2,6 C 0,0 km/h (0 Bft) 100 %
20.04.2017 03:00 -2,6 C -2,7 C -2,6 C 89 % 1034,2 hPa 0,0 l/m 0,0 km/h (0 Bft) N 0 0 min 0,000 mm 0 W/m -4,2 C -2,6 C 0,0 km/h (0 Bft) 100 %
20.04.2017 03:10 -2,7 C -2,7 C -2,6 C 90 % 1034,1 hPa 0,0 l/m 0,0 km/h (0 Bft) N 0 0 min 0,000 mm 0 W/m -4,1 C -2,7 C 0,0 km/h (0 Bft) 100 %
20.04.2017 03:20 -2,8 C -2,8 C -2,7 C 90 % 1034,2 hPa 0,0 l/m 0,0 km/h (0 Bft) N 0 0 min 0,000 mm 0 W/m -4,2 C -2,8 C 0,0 km/h (0 Bft) 100 %
20.04.2017 03:30 -3,0 C -3,0 C -2,8 C 89 % 1034,1 hPa 0,0 l/m 0,0 km/h (0 Bft) N 0 0 min 0,000 mm 0 W/m -4,6 C -3,0 C 0,0 km/h (0 Bft) 100 %
20.04.2017 03:40 -3,1 C -3,1 C -3,0 C 90 % 1034,1 hPa 0,0 l/m 0,0 km/h (0 Bft) N 0 0 min 0,000 mm 0 W/m -4,5 C -3,1 C 0,0 km/h (0 Bft) 100 %
20.04.2017 03:50 -3,1 C -3,2 C -3,1 C 90 % 1034,1 hPa 0,0 l/m 0,0 km/h (0 Bft) N 0 0 min 0,000 mm 0 W/m -4,5 C -3,1 C 0,0 km/h (0 Bft) 99 %
20.04.2017 04:00 -3,2 C -3,2 C -3,1 C 90 % 1034,1 hPa 0,0 l/m 0,0 km/h (0 Bft) N 0 0 min 0,000 mm 0 W/m -4,6 C -3,2 C 0,0 km/h (0 Bft) 100 %
20.04.2017 04:10 -3,2 C -3,2 C -3,2 C 90 % 1034,1 hPa 0,0 l/m 0,0 km/h (0 Bft) N 0 0 min 0,000 mm 0 W/m -4,6 C -3,2 C 0,0 km/h (0 Bft) 100 %
20.04.2017 04:20 -3,0 C -3,2 C -3,0 C 90 % 1034,0 hPa 0,0 l/m 0,0 km/h (0 Bft) N 0 0 min 0,000 mm 0 W/m -4,4 C -3,0 C 0,0 km/h (0 Bft) 100 %
20.04.2017 04:30 -2,9 C -3,0 C -2,9 C 90 % 1034,0 hPa 0,0 l/m 0,0 km/h (0 Bft) N 0 0 min 0,000 mm 0 W/m -4,3 C -2,9 C 0,0 km/h (0 Bft) 100 %
20.04.2017 04:40 -2,9 C -2,9 C -2,9 C 90 % 1034,0 hPa 0,0 l/m 0,0 km/h (0 Bft) N 0 0 min 0,000 mm 0 W/m -4,3 C -2,9 C 0,0 km/h (0 Bft) 100 %
20.04.2017 04:50 -3,1 C -3,1 C -2,9 C 90 % 1034,1 hPa 0,0 l/m 0,0 km/h (0 Bft) N 0 0 min 0,000 mm 0 W/m -4,5 C -3,1 C 0,0 km/h (0 Bft) 100 %
20.04.2017 05:00 -3,3 C -3,3 C -3,1 C 90 % 1034,2 hPa 0,0 l/m 0,0 km/h (0 Bft) N 0 0 min 0,000 mm 0 W/m -4,7 C -3,3 C 0,0 km/h (0 Bft) 100 %
20.04.2017 05:10 -3,5 C -3,5 C -3,3 C 90 % 1034,3 hPa 0,0 l/m 0,0 km/h (0 Bft) N 0 0 min 0,000 mm 0 W/m -4,9 C -3,5 C 0,0 km/h (0 Bft) 91 %
20.04.2017 05:20 -3,7 C -3,7 C -3,5 C 90 % 1034,3 hPa 0,0 l/m 0,0 km/h (0 Bft) N 0 0 min 0,000 mm 0 W/m -5,1 C -3,7 C 0,0 km/h (0 Bft) 100 %
20.04.2017 05:30 -3,8 C -3,8 C -3,7 C 90 % 1034,2 hPa 0,0 l/m 0,0 km/h (0 Bft) N 0 0 min 0,000 mm 0 W/m -5,2 C -3,8 C 0,0 km/h (0 Bft) 100 %
20.04.2017 05:40 -4,0 C -4,0 C -3,8 C 90 % 1034,3 hPa 0,0 l/m 0,0 km/h (0 Bft) N 0 0 min 0,000 mm 0 W/m -5,4 C -4,0 C 0,0 km/h (0 Bft) 100 %
20.04.2017 05:50 -4,1 C -4,1 C -4,0 C 90 % 1034,4 hPa 0,0 l/m 0,0 km/h (0 Bft) N 0 0 min 0,000 mm 0 W/m -5,5 C -4,1 C 0,0 km/h (0 Bft) 100 %
20.04.2017 06:00 -4,2 C -4,2 C -4,1 C 90 % 1034,4 hPa 0,0 l/m 0,0 km/h (0 Bft) N 0 0 min 0,000 mm 0 W/m -5,6 C -4,2 C 0,0 km/h (0 Bft) 100 %
20.04.2017 06:10 -4,2 C -4,2 C -4,2 C 91 % 1034,5 hPa 0,0 l/m 0,0 km/h (0 Bft) N 0 0 min 0,000 mm 0 W/m -5,4 C -4,2 C 0,0 km/h (0 Bft) 100 %
20.04.2017 06:20 -4,2 C -4,2 C -4,2 C 91 % 1034,7 hPa 0,0 l/m 0,0 km/h (0 Bft) N 0 0 min 0,000 mm 0 W/m -5,4 C -4,2 C 0,0 km/h (0 Bft) 100 %
20.04.2017 06:30 -4,2 C -4,2 C -4,2 C 91 % 1034,9 hPa 0,0 l/m 0,0 km/h (0 Bft) N 0 0 min 0,000 mm 5 W/m -5,4 C -4,2 C 0,0 km/h (0 Bft) 100 %
20.04.2017 06:40 -4,2 C -4,2 C -4,2 C 91 % 1034,8 hPa 0,0 l/m 0,0 km/h (0 Bft) N 0 0 min 0,000 mm 11 W/m -5,4 C -4,2 C 0,0 km/h (0 Bft) 100 %
20.04.2017 06:50 -4,1 C -4,2 C -4,1 C 91 % 1034,9 hPa 0,0 l/m 0,0 km/h (0 Bft) N 0 0 min 0,000 mm 14 W/m -5,3 C -4,1 C 0,0 km/h (0 Bft) 100 %
20.04.2017 07:00 -4,1 C -4,1 C -4,1 C 90 % 1034,9 hPa 0,0 l/m 0,0 km/h (0 Bft) N 0 0 min 0,000 mm 18 W/m -5,5 C -4,1 C 0,0 km/h (0 Bft) 100 %
20.04.2017 07:10 -3,9 C -4,1 C -3,9 C 90 % 1035,1 hPa 0,0 l/m 0,0 km/h (0 Bft) N 0 0 min 0,000 mm 21 W/m -5,3 C -3,9 C 0,0 km/h (0 Bft) 92 %
20.04.2017 07:20 -3,8 C -3,9 C -3,8 C 91 % 1035,2 hPa 0,0 l/m 0,0 km/h (0 Bft) N 0 0 min 0,000 mm 25 W/m -5,0 C -3,8 C 0,0 km/h (0 Bft) 100 %
20.04.2017 07:30 -3,6 C -3,8 C -3,6 C 91 % 1035,2 hPa 0,0 l/m 0,0 km/h (0 Bft) N 0 0 min 0,000 mm 28 W/m -4,8 C -3,6 C 0,0 km/h (0 Bft) 100 %
20.04.2017 07:40 -3,4 C -3,6 C -3,4 C 91 % 1035,2 hPa 0,0 l/m 0,0 km/h (0 Bft) N 0 0 min 0,000 mm 33 W/m -4,7 C -3,4 C 0,0 km/h (0 Bft) 100 %
20.04.2017 07:50 -3,2 C -3,4 C -3,2 C 91 % 1035,2 hPa 0,0 l/m 0,0 km/h (0 Bft) N 0 0 min 0,000 mm 37 W/m -4,5 C -3,2 C 0,0 km/h (0 Bft) 100 %
20.04.2017 08:00 -3,0 C -3,2 C -3,0 C 91 % 1035,2 hPa 0,0 l/m 0,0 km/h (0 Bft) N 0 0 min 0,000 mm 39 W/m -4,3 C -3,0 C 0,0 km/h (0 Bft) 100 %
20.04.2017 08:10 -2,7 C -3,0 C -2,7 C 91 % 1035,3 hPa 0,0 l/m 0,0 km/h (0 Bft) N 0 0 min 0,000 mm 54 W/m -4,0 C -2,7 C 0,0 km/h (0 Bft) 100 %
20.04.2017 08:20 -2,2 C -2,7 C -2,2 C 91 % 1035,5 hPa 0,0 l/m 0,0 km/h (0 Bft) N 0 0 min 0,000 mm 116 W/m -3,5 C -2,2 C 0,0 km/h (0 Bft) 100 %
20.04.2017 08:30 -1,6 C -2,2 C -1,6 C 91 % 1035,4 hPa 0,0 l/m 0,0 km/h (0 Bft) N 0 10 min 0,000 mm 306 W/m -2,9 C -1,6 C 0,0 km/h (0 Bft) 92 %
20.04.2017 08:40 -0,3 C -1,5 C -0,3 C 91 % 1035,5 hPa 0,0 l/m 0,0 km/h (0 Bft) N 0 10 min 0,000 mm 357 W/m -1,6 C -0,3 C 0,0 km/h (0 Bft) 99 %
20.04.2017 08:50 1,3 C -0,3 C 1,3 C 87 % 1035,6 hPa 0,0 l/m 0,0 km/h (0 Bft) N 0 10 min 0,000 mm 399 W/m -0,6 C 1,3 C 0,0 km/h (0 Bft) 97 %
20.04.2017 09:00 2,4 C 1,3 C 2,4 C 79 % 1035,7 hPa 0,0 l/m 0,0 km/h (0 Bft) NO 45 10 min 0,076 mm 429 W/m -0,9 C 2,4 C 1,6 km/h (1 Bft) 98 %
20.04.2017 09:10 3,1 C 2,4 C 3,1 C 73 % 1035,7 hPa 0,0 l/m 0,0 km/h (0 Bft) N 360 10 min 0,000 mm 452 W/m -1,3 C 3,1 C 6,4 km/h (2 Bft) 97 %
20.04.2017 09:20 3,9 C 3,2 C 3,9 C 69 % 1035,8 hPa 0,0 l/m 1,6 km/h (1 Bft) NO 45 10 min 0,000 mm 483 W/m -1,3 C 3,9 C 11,3 km/h (2 Bft) 98 %
20.04.2017 09:30 4,3 C 3,9 C 4,3 C 67 % 1035,8 hPa 0,0 l/m 0,0 km/h (0 Bft) N 0 10 min 0,000 mm 508 W/m -1,3 C 4,3 C 0,0 km/h (0 Bft) 97 %
20.04.2017 09:40 4,7 C 4,3 C 4,7 C 62 % 1035,7 hPa 0,0 l/m 0,0 km/h (0 Bft) N 0 10 min 0,000 mm 541 W/m -1,9 C 4,7 C 0,0 km/h (0 Bft) 97 %
20.04.2017 09:50 5,0 C 4,7 C 5,0 C 64 % 1035,8 hPa 0,0 l/m 0,0 km/h (0 Bft) NO 45 10 min 0,000 mm 566 W/m -1,2 C 5,0 C 3,2 km/h (1 Bft) 98 %
20.04.2017 10:00 5,2 C 5,0 C 5,2 C 56 % 1035,8 hPa 0,0 l/m 1,6 km/h (1 Bft) NO 45 10 min 0,203 mm 626 W/m -2,8 C 5,2 C 6,4 km/h (2 Bft) 99 %
20.04.2017 10:10 5,3 C 5,2 C 5,4 C 55 % 1035,9 hPa 0,0 l/m 1,6 km/h (1 Bft) NO 45 10 min 0,000 mm 666 W/m -3,0 C 5,3 C 9,7 km/h (2 Bft) 100 %
20.04.2017 10:20 5,6 C 5,2 C 5,6 C 55 % 1035,8 hPa 0,0 l/m 1,6 km/h (1 Bft) NO 45 10 min 0,000 mm 705 W/m -2,7 C 5,6 C 9,7 km/h (2 Bft) 100 %
20.04.2017 10:30 6,0 C 5,6 C 6,0 C 52 % 1035,9 hPa 0,0 l/m 1,6 km/h (1 Bft) N-NO 22 10 min 0,000 mm 830 W/m -3,1 C 6,0 C 8,0 km/h (2 Bft) 100 %
20.04.2017 10:40 6,3 C 6,0 C 6,3 C 52 % 1035,8 hPa 0,0 l/m 0,0 km/h (0 Bft) NO 45 10 min 0,000 mm 872 W/m -2,8 C 6,3 C 8,0 km/h (2 Bft) 100 %
20.04.2017 10:50 6,5 C 6,3 C 6,6 C 53 % 1035,9 hPa 0,0 l/m 3,2 km/h (1 Bft) NW 315 10 min 0,000 mm 712 W/m -2,4 C 6,5 C 14,5 km/h (3 Bft) 100 %
20.04.2017 11:00 5,8 C 5,8 C 6,5 C 51 % 1035,9 hPa 0,0 l/m 1,6 km/h (1 Bft) NW 315 10 min 0,254 mm 373 W/m -3,5 C 5,8 C 14,5 km/h (3 Bft) 100 %
20.04.2017 11:10 5,5 C 5,3 C 5,8 C 52 % 1036,0 hPa 0,0 l/m 0,0 km/h (0 Bft) N 360 10 min 0,000 mm 826 W/m -3,6 C 5,5 C 8,0 km/h (2 Bft) 100 %
20.04.2017 11:20 6,2 C 5,5 C 6,2 C 51 % 1036,1 hPa 0,0 l/m 0,0 km/h (0 Bft) N-NO 22 10 min 0,000 mm 807 W/m -3,2 C 6,2 C 8,0 km/h (2 Bft) 100 %
20.04.2017 11:30 7,0 C 6,2 C 7,0 C 50 % 1035,8 hPa 0,0 l/m 0,0 km/h (0 Bft) W 270 10 min 0,000 mm 833 W/m -2,7 C 7,0 C 6,4 km/h (2 Bft) 100 %
20.04.2017 11:40 7,5 C 7,0 C 7,6 C 48 % 1035,8 hPa 0,0 l/m 1,6 km/h (1 Bft) N-NW 337 10 min 0,000 mm 867 W/m -2,8 C 7,5 C 11,3 km/h (2 Bft) 100 %
20.04.2017 11:50 7,6 C 7,4 C 7,6 C 52 % 1035,8 hPa 0,0 l/m 0,0 km/h (0 Bft) SO 135 10 min 0,000 mm 914 W/m -1,6 C 7,6 C 8,0 km/h (2 Bft) 98 %
20.04.2017 12:00 7,3 C 7,3 C 7,6 C 48 % 1035,8 hPa 0,0 l/m 1,6 km/h (1 Bft) N-NW 337 10 min 0,330 mm 909 W/m -3,0 C 7,3 C 8,0 km/h (2 Bft) 99 %
20.04.2017 12:10 7,7 C 7,3 C 7,7 C 47 % 1035,7 hPa 0,0 l/m 1,6 km/h (1 Bft) NW 315 10 min 0,000 mm 933 W/m -2,9 C 7,7 C 9,7 km/h (2 Bft) 100 %
20.04.2017 12:20 7,4 C 7,3 C 7,6 C 52 % 1035,6 hPa 0,0 l/m 0,0 km/h (0 Bft) N-NO 22 10 min 0,000 mm 886 W/m -1,8 C 7,4 C 9,7 km/h (2 Bft) 100 %
20.04.2017 12:30 7,7 C 7,4 C 7,7 C 52 % 1035,5 hPa 0,0 l/m 3,2 km/h (1 Bft) N-NW 337 10 min 0,000 mm 907 W/m -1,5 C 7,7 C 17,7 km/h (3 Bft) 100 %
20.04.2017 12:40 7,7 C 7,7 C 7,9 C 49 % 1035,6 hPa 0,0 l/m 1,6 km/h (1 Bft) N-NW 337 10 min 0,000 mm 923 W/m -2,3 C 7,7 C 17,7 km/h (3 Bft) 100 %
20.04.2017 12:50 8,1 C 7,7 C 8,1 C 50 % 1035,5 hPa 0,0 l/m 3,2 km/h (1 Bft) NW 315 10 min 0,000 mm 865 W/m -1,7 C 8,1 C 14,5 km/h (3 Bft) 100 %
20.04.2017 13:00 8,2 C 8,1 C 8,3 C 48 % 1035,4 hPa 0,0 l/m 1,6 km/h (1 Bft) NW 315 10 min 0,356 mm 886 W/m -2,1 C 8,2 C 12,9 km/h (3 Bft) 100 %
20.04.2017 13:10 7,8 C 7,8 C 8,2 C 46 % 1035,3 hPa 0,0 l/m 1,6 km/h (1 Bft) O-SO 112 10 min 0,000 mm 877 W/m -3,1 C 7,8 C 11,3 km/h (2 Bft) 100 %
20.04.2017 13:20 7,8 C 7,6 C 7,8 C 51 % 1035,2 hPa 0,0 l/m 1,6 km/h (1 Bft) NW 315 10 min 0,000 mm 891 W/m -1,7 C 7,8 C 9,7 km/h (2 Bft) 100 %
20.04.2017 13:30 8,3 C 7,8 C 8,3 C 50 % 1035,1 hPa 0,0 l/m 1,6 km/h (1 Bft) NW 315 10 min 0,000 mm 884 W/m -1,5 C 8,3 C 11,3 km/h (2 Bft) 100 %
20.04.2017 13:40 8,1 C 8,0 C 8,3 C 51 % 1034,9 hPa 0,0 l/m 0,0 km/h (0 Bft) SW 225 10 min 0,000 mm 868 W/m -1,4 C 8,1 C 3,2 km/h (1 Bft) 100 %
20.04.2017 13:50 8,4 C 8,1 C 8,4 C 49 % 1034,9 hPa 0,0 l/m 0,0 km/h (0 Bft) NW 315 10 min 0,000 mm 861 W/m -1,7 C 8,4 C 9,7 km/h (2 Bft) 100 %
20.04.2017 14:00 8,2 C 8,2 C 8,7 C 45 % 1034,8 hPa 0,0 l/m 1,6 km/h (1 Bft) O-SO 112 10 min 0,381 mm 860 W/m -3,0 C 8,2 C 11,3 km/h (2 Bft) 100 %
20.04.2017 14:10 8,1 C 8,1 C 8,2 C 51 % 1034,8 hPa 0,0 l/m 3,2 km/h (1 Bft) O-SO 112 10 min 0,000 mm 854 W/m -1,4 C 8,1 C 14,5 km/h (3 Bft) 100 %
20.04.2017 14:20 8,4 C 8,1 C 8,4 C 47 % 1034,6 hPa 0,0 l/m 1,6 km/h (1 Bft) N-NW 337 10 min 0,000 mm 846 W/m -2,2 C 8,4 C 9,7 km/h (2 Bft) 100 %
20.04.2017 14:30 9,0 C 8,4 C 9,0 C 47 % 1034,6 hPa 0,0 l/m 1,6 km/h (1 Bft) N-NW 337 10 min 0,000 mm 830 W/m -1,7 C 9,0 C 6,4 km/h (2 Bft) 100 %
20.04.2017 14:40 9,3 C 8,9 C 9,3 C 49 % 1034,4 hPa 0,0 l/m 4,8 km/h (1 Bft) W 270 10 min 0,000 mm 817 W/m -0,9 C 9,3 C 14,5 km/h (3 Bft) 100 %
20.04.2017 14:50 9,8 C 9,3 C 9,8 C 44 % 1034,4 hPa 0,0 l/m 3,2 km/h (1 Bft) NW 315 10 min 0,000 mm 809 W/m -1,9 C 9,8 C 14,5 km/h (3 Bft) 100 %
20.04.2017 15:00 9,4 C 9,4 C 9,8 C 49 % 1034,2 hPa 0,0 l/m 1,6 km/h (1 Bft) O-SO 112 10 min 0,356 mm 540 W/m -0,8 C 9,4 C 8,0 km/h (2 Bft) 100 %
20.04.2017 15:10 9,6 C 9,4 C 9,7 C 45 % 1034,0 hPa 0,0 l/m 3,2 km/h (1 Bft) W-SW 247 0 min 0,000 mm 146 W/m -1,7 C 9,6 C 16,1 km/h (3 Bft) 100 %
20.04.2017 15:20 9,4 C 9,3 C 9,6 C 50 % 1034,0 hPa 0,0 l/m 1,6 km/h (1 Bft) W-NW 292 10 min 0,000 mm 258 W/m -0,5 C 9,4 C 6,4 km/h (2 Bft) 100 %
20.04.2017 15:30 9,9 C 9,4 C 9,9 C 47 % 1033,8 hPa 0,0 l/m 1,6 km/h (1 Bft) NW 315 0 min 0,000 mm 146 W/m -0,9 C 9,9 C 9,7 km/h (2 Bft) 100 %
20.04.2017 15:40 10,1 C 9,9 C 10,1 C 48 % 1033,5 hPa 0,0 l/m 3,2 km/h (1 Bft) S-SW 202 0 min 0,000 mm 84 W/m -0,4 C 10,1 C 14,5 km/h (3 Bft) 100 %
20.04.2017 15:50 10,5 C 10,1 C 10,5 C 49 % 1033,4 hPa 0,0 l/m 4,8 km/h (1 Bft) NW 315 0 min 0,000 mm 90 W/m 0,2 C 10,5 C 19,3 km/h (3 Bft) 100 %
20.04.2017 16:00 10,4 C 10,4 C 10,6 C 41 % 1033,4 hPa 0,0 l/m 3,2 km/h (1 Bft) N-NW 337 0 min 0,076 mm 90 W/m -2,3 C 10,4 C 14,5 km/h (3 Bft) 100 %
20.04.2017 16:10 10,1 C 10,1 C 10,4 C 46 % 1033,4 hPa 0,0 l/m 0,0 km/h (0 Bft) W-SW 247 0 min 0,000 mm 81 W/m -1,0 C 10,1 C 8,0 km/h (2 Bft) 100 %
20.04.2017 16:20 10,3 C 10,1 C 10,3 C 46 % 1033,2 hPa 0,0 l/m 4,8 km/h (1 Bft) W 270 0 min 0,000 mm 81 W/m -0,8 C 10,3 C 11,3 km/h (2 Bft) 100 %
20.04.2017 16:30 10,5 C 10,3 C 10,5 C 46 % 1033,2 hPa 0,0 l/m 6,4 km/h (2 Bft) W 270 0 min 0,000 mm 83 W/m -0,6 C 10,5 C 16,1 km/h (3 Bft) 100 %
20.04.2017 16:40 10,5 C 10,4 C 10,6 C 46 % 1033,2 hPa 0,0 l/m 3,2 km/h (1 Bft) N-NW 337 0 min 0,000 mm 90 W/m -0,6 C 10,5 C 8,0 km/h (2 Bft) 100 %
20.04.2017 16:50 10,5 C 10,4 C 10,6 C 43 % 1033,1 hPa 0,0 l/m 3,2 km/h (1 Bft) N-NO 22 0 min 0,000 mm 95 W/m -1,5 C 10,5 C 9,7 km/h (2 Bft) 100 %
20.04.2017 17:00 10,7 C 10,5 C 10,7 C 46 % 1032,9 hPa 0,0 l/m 1,6 km/h (1 Bft) W-SW 247 0 min 0,076 mm 104 W/m -0,4 C 10,7 C 11,3 km/h (2 Bft) 100 %
20.04.2017 17:10 10,6 C 10,6 C 10,7 C 44 % 1032,8 hPa 0,0 l/m 4,8 km/h (1 Bft) NW 315 0 min 0,000 mm 113 W/m -1,1 C 10,6 C 14,5 km/h (3 Bft) 100 %
20.04.2017 17:20 10,1 C 10,1 C 10,6 C 46 % 1032,9 hPa 0,0 l/m 1,6 km/h (1 Bft) W-NW 292 0 min 0,000 mm 81 W/m -1,0 C 10,1 C 9,7 km/h (2 Bft) 97 %
20.04.2017 17:30 9,8 C 9,8 C 10,1 C 47 % 1032,9 hPa 0,0 l/m 1,6 km/h (1 Bft) NW 315 0 min 0,000 mm 97 W/m -1,0 C 9,8 C 9,7 km/h (2 Bft) 98 %
20.04.2017 17:40 9,9 C 9,8 C 9,9 C 46 % 1032,8 hPa 0,0 l/m 3,2 km/h (1 Bft) W-NW 292 0 min 0,000 mm 98 W/m -1,2 C 9,9 C 9,7 km/h (2 Bft) 98 %
20.04.2017 17:50 9,8 C 9,8 C 9,9 C 46 % 1032,7 hPa 0,0 l/m 1,6 km/h (1 Bft) NW 315 0 min 0,000 mm 109 W/m -1,3 C 9,8 C 9,7 km/h (2 Bft) 98 %
20.04.2017 18:00 9,8 C 9,8 C 9,8 C 47 % 1032,6 hPa 0,0 l/m 1,6 km/h (1 Bft) W-NW 292 0 min 0,051 mm 114 W/m -1,0 C 9,8 C 9,7 km/h (2 Bft) 98 %
20.04.2017 18:10 9,8 C 9,8 C 9,8 C 47 % 1032,5 hPa 0,0 l/m 1,6 km/h (1 Bft) W-NW 292 0 min 0,000 mm 128 W/m -1,0 C 9,8 C 8,0 km/h (2 Bft) 97 %
20.04.2017 18:20 9,9 C 9,8 C 9,9 C 48 % 1032,5 hPa 0,0 l/m 3,2 km/h (1 Bft) W-NW 292 0 min 0,000 mm 135 W/m -0,6 C 9,9 C 8,0 km/h (2 Bft) 97 %
20.04.2017 18:30 9,8 C 9,8 C 9,9 C 46 % 1032,6 hPa 0,0 l/m 1,6 km/h (1 Bft) W-NW 292 0 min 0,000 mm 95 W/m -1,3 C 9,8 C 8,0 km/h (2 Bft) 97 %
20.04.2017 18:50 9,7 C 9,7 C 9,9 C 46 % 1032,5 hPa 0,0 l/m 2,4 km/h (1 Bft) NW 315 0 min 0,000 mm 74 W/m -1,3 C 9,7 C 8,0 km/h (2 Bft) 100 %
20.04.2017 19:00 9,7 C 9,7 C 9,7 C 47 % 1032,4 hPa 0,0 l/m 2,8 km/h (1 Bft) W-NW 302 0 min 0,076 mm 65 W/m -1,1 C 9,7 C 14,5 km/h (3 Bft) 100 %
20.04.2017 19:10 9,6 C 9,6 C 9,7 C 48 % 1032,6 hPa 0,0 l/m 3,3 km/h (1 Bft) N-NW 329 0 min 0,000 mm 54 W/m -0,9 C 9,6 C 11,3 km/h (2 Bft) 100 %
20.04.2017 19:20 9,5 C 9,5 C 9,6 C 47 % 1032,5 hPa 0,0 l/m 2,1 km/h (1 Bft) NW 326 0 min 0,000 mm 40 W/m -1,2 C 9,5 C 9,7 km/h (2 Bft) 100 %
20.04.2017 19:30 9,3 C 9,3 C 9,5 C 49 % 1032,6 hPa 0,0 l/m 1,8 km/h (1 Bft) NW 323 0 min 0,000 mm 33 W/m -0,9 C 9,3 C 11,3 km/h (2 Bft) 100 %
20.04.2017 19:40 9,1 C 9,1 C 9,3 C 49 % 1032,7 hPa 0,0 l/m 0,6 km/h (0 Bft) N-NW 329 0 min 0,000 mm 25 W/m -1,0 C 9,1 C 6,4 km/h (2 Bft) 100 %
20.04.2017 19:50 8,7 C 8,7 C 9,1 C 49 % 1032,7 hPa 0,0 l/m 2,2 km/h (1 Bft) N-NW 329 0 min 0,000 mm 21 W/m -1,4 C 8,7 C 8,0 km/h (2 Bft) 100 %
20.04.2017 20:00 8,4 C 8,4 C 8,7 C 50 % 1032,7 hPa 0,0 l/m 3,9 km/h (1 Bft) N-NW 346 0 min 0,026 mm 18 W/m -1,4 C 8,4 C 14,5 km/h (3 Bft) 100 %
20.04.2017 20:10 8,0 C 8,0 C 8,4 C 51 % 1032,8 hPa 0,0 l/m 1,4 km/h (1 Bft) N-NW 331 0 min 0,000 mm 11 W/m -1,5 C 8,0 C 8,0 km/h (2 Bft) 100 %
20.04.2017 20:20 7,6 C 7,6 C 8,0 C 51 % 1032,8 hPa 0,0 l/m 0,2 km/h (0 Bft) N-NW 329 0 min 0,000 mm 5 W/m -1,9 C 7,6 C 4,8 km/h (1 Bft) 100 %
20.04.2017 20:30 7,2 C 7,2 C 7,6 C 55 % 1032,8 hPa 0,0 l/m 0,0 km/h (0 Bft) N-NW 329 0 min 0,000 mm 0 W/m -1,2 C 7,2 C 0,0 km/h (0 Bft) 99 %
20.04.2017 20:40 6,5 C 6,5 C 7,2 C 59 % 1032,9 hPa 0,0 l/m 0,0 km/h (0 Bft) N-NW 331 0 min 0,000 mm 0 W/m -0,9 C 6,5 C 1,6 km/h (1 Bft) 100 %
20.04.2017 20:50 5,8 C 5,8 C 6,5 C 61 % 1033,1 hPa 0,0 l/m 0,0 km/h (0 Bft) N-NW 331 0 min 0,000 mm 0 W/m -1,1 C 5,8 C 0,0 km/h (0 Bft) 100 %
20.04.2017 21:00 5,2 C 5,2 C 5,8 C 61 % 1033,1 hPa 0,0 l/m 0,0 km/h (0 Bft) N-NW 331 0 min 0,000 mm 0 W/m -1,7 C 5,2 C 0,0 km/h (0 Bft) 100 %
20.04.2017 21:10 4,8 C 4,8 C 5,2 C 61 % 1033,2 hPa 0,0 l/m 0,0 km/h (0 Bft) N 0 0 min 0,000 mm 0 W/m -2,1 C 4,8 C 0,0 km/h (0 Bft) 89 %
20.04.2017 21:20 4,6 C 4,6 C 4,8 C 62 % 1033,2 hPa 0,0 l/m 0,0 km/h (0 Bft) N 0 0 min 0,000 mm 0 W/m -2,0 C 4,6 C 0,0 km/h (0 Bft) 98 %
20.04.2017 21:30 4,5 C 4,5 C 4,6 C 62 % 1033,3 hPa 0,0 l/m 0,0 km/h (0 Bft) N 0 0 min 0,000 mm 0 W/m -2,1 C 4,5 C 0,0 km/h (0 Bft) 97 %
20.04.2017 21:40 4,3 C 4,3 C 4,5 C 61 % 1033,3 hPa 0,0 l/m 0,0 km/h (0 Bft) N 0 0 min 0,000 mm 0 W/m -2,5 C 4,3 C 0,0 km/h (0 Bft) 97 %
20.04.2017 21:50 4,1 C 4,1 C 4,3 C 63 % 1033,2 hPa 0,0 l/m 0,0 km/h (0 Bft) N 0 0 min 0,000 mm 0 W/m -2,3 C 4,1 C 0,0 km/h (0 Bft) 98 %
20.04.2017 22:00 3,9 C 3,9 C 4,1 C 63 % 1033,2 hPa 0,0 l/m 0,0 km/h (0 Bft) N 0 0 min 0,025 mm 0 W/m -2,5 C 3,9 C 0,0 km/h (0 Bft) 96 %
20.04.2017 22:10 3,8 C 3,8 C 3,9 C 62 % 1033,2 hPa 0,0 l/m 0,0 km/h (0 Bft) N 0 0 min 0,000 mm 0 W/m -2,8 C 3,8 C 0,0 km/h (0 Bft) 98 %
20.04.2017 22:20 3,7 C 3,7 C 3,8 C 64 % 1033,2 hPa 0,0 l/m 0,0 km/h (0 Bft) N 0 0 min 0,000 mm 0 W/m -2,5 C 3,7 C 0,0 km/h (0 Bft) 98 %
20.04.2017 22:30 3,3 C 3,3 C 3,7 C 64 % 1033,2 hPa 0,0 l/m 0,0 km/h (0 Bft) N 0 0 min 0,000 mm 0 W/m -2,8 C 3,3 C 0,0 km/h (0 Bft) 98 %
20.04.2017 22:40 3,0 C 3,0 C 3,3 C 65 % 1033,0 hPa 0,0 l/m 0,0 km/h (0 Bft) N 0 0 min 0,000 mm 0 W/m -2,9 C 3,0 C 0,0 km/h (0 Bft) 98 %
20.04.2017 22:50 2,8 C 2,8 C 3,0 C 67 % 1033,1 hPa 0,0 l/m 0,0 km/h (0 Bft) N 0 0 min 0,000 mm 0 W/m -2,7 C 2,8 C 0,0 km/h (0 Bft) 98 %
20.04.2017 23:00 2,5 C 2,5 C 2,8 C 69 % 1033,1 hPa 0,0 l/m 0,0 km/h (0 Bft) N 0 0 min 0,025 mm 0 W/m -2,6 C 2,5 C 0,0 km/h (0 Bft) 100 %
20.04.2017 23:10 2,2 C 2,2 C 2,5 C 67 % 1033,1 hPa 0,0 l/m 0,0 km/h (0 Bft) N 0 0 min 0,000 mm 0 W/m -3,3 C 2,2 C 0,0 km/h (0 Bft) 99 %
20.04.2017 23:20 2,0 C 2,0 C 2,2 C 67 % 1033,0 hPa 0,0 l/m 0,0 km/h (0 Bft) N 0 0 min 0,000 mm 0 W/m -3,5 C 2,0 C 0,0 km/h (0 Bft) 100 %
20.04.2017 23:30 1,8 C 1,8 C 2,0 C 70 % 1032,9 hPa 0,0 l/m 0,0 km/h (0 Bft) N 0 0 min 0,000 mm 0 W/m -3,1 C 1,8 C 0,0 km/h (0 Bft) 100 %
20.04.2017 23:40 1,4 C 1,4 C 1,8 C 70 % 1033,0 hPa 0,0 l/m 0,0 km/h (0 Bft) N 0 0 min 0,000 mm 0 W/m -3,5 C 1,4 C 0,0 km/h (0 Bft) 100 %
20.04.2017 23:50 1,2 C 1,2 C 1,4 C 73 % 1033,0 hPa 0,0 l/m 0,0 km/h (0 Bft) N 0 0 min 0,000 mm 0 W/m -3,1 C 1,2 C 0,0 km/h (0 Bft) 100 %
_ Min-Zeit 06:00 06:00 06:10 16:00 19:00 - 00:00 - - - - - 06:00 06:00 00:00 00:50
Minimum _ -4,2 C -4,2 C -4,2 C 41 % 1032,4 hPa - 0,0 km/h (0 Bft) - - - - - -5,6 C -4,2 C 0,0 km/h (0 Bft) 88 %
_ Max-Zeit 17:00 17:10 17:00 06:10 11:20 00:00 16:30 - - 08:30 14:00 12:10 15:50 17:00 15:50 00:00
Maximum _ 10,7 C 10,6 C 10,7 C 91 % 1036,1 hPa 0,0 l/m 6,4 km/h
W (2 Bft)
- - 10 min 0,381 mm 933 W/m 0,2 C 10,7 C 19,3 km/h
NW (3 Bft)
100 %
Durchschnitt _ 3,4 C 3,3 C 3,5 C 67 % 1034,2 hPa #0,0 l/m 0,9 km/h (0 Bft) NW - #6:50 h #2,311 mm 390 W/m -2,7 C 3,4 C 4,8 km/h (1 Bft) 99 %
PRIVATE WETTERSTATION BILLIGHEIM-ALLFELD - www.neckar-odenwald-wetter.de - Holger Sonntag